Temperature
27 27 26 27 28 28 29 29 29 29 30 30 29 28 28 28 28 28 27 26 25 24 23 22 22 21 20 19 19 18 18 18 18 18 17 17 17 17 17 17 17 16 17 17
27 26 28 29 29 29 28 28 29 29 30 30 29 28 29 29 28 28 27 26 25 24 23 22 21 20 20 19 18 18 18 18 18 18 18 17 17 17 17 16 16 16 16 16
27 28 29 29 29 28 28 28 29 29 29 30 29 28 28 29 28 27 27 26 25 24 23 22 21 20 20 19 18 18 17 17 17 17 17 17 17 16 16 16 16 16 16 16
28 29 29 28 28 28 27 29 29 29 28 27 28 27 27 28 27 27 26 25 25 24 23 22 21 20 20 19 18 18 17 17 17 17 17 17 17 16 16 16 16 16 16 16
28 29 28 28 28 28 28 29 29 28 27 27 28 27 27 27 26 26 26 25 25 24 23 22 21 20 20 19 18 18 17 17 17 17 17 17 16 16 16 16 16 16 16 16
28 29 29 29 29 29 29 29 28 28 27 25 27 26 26 27 27 26 26 25 24 24 23 22 21 21 20 19 18 18 17 17 17 16 16 16 16 16 16 16 16 16 16 15
27 28 29 29 28 28 28 27 25 25 25 25 27 26 25 27 27 27 26 25 24 24 23 22 21 21 20 19 18 18 17 17 16 16 16 16 16 16 16 16 16 15 15 15
26 26 28 28 27 27 27 27 24 24 25 25 26 25 26 27 27 26 26 25 24 24 23 22 21 20 20 19 18 18 17 17 16 16 16 16 15 15 15 15 15 15 15 15
26 26 28 28 28 28 27 26 27 26 26 25 26 25 25 26 26 26 25 24 24 23 23 22 21 20 19 19 18 17 17 17 16 16 16 15 15 15 15 15 15 15 15 15
26 25 27 28 28 28 28 27 26 26 24 24 25 25 24 25 25 25 25 24 24 23 22 22 21 20 19 18 18 17 17 17 16 16 15 15 15 15 15 15 15 15 15 14
26 24 25 27 26 26 27 26 25 25 25 24 23 24 25 24 24 24 24 23 23 23 22 21 20 20 19 18 18 17 17 16 16 15 15 15 15 15 14 14 14 14 14 14
25 24 24 25 27 28 27 26 25 24 23 24 23 23 25 24 24 24 24 23 23 22 22 21 20 19 19 18 17 17 16 16 15 15 15 15 14 14 14 14 14 14 14 14
24 23 22 24 25 26 26 26 26 25 24 23 23 23 24 24 24 24 24 23 23 22 21 21 20 19 18 18 17 16 16 16 15 15 15 14 14 14 14 14 14 14 13 13
23 22 22 22 23 24 25 25 26 25 24 23 23 23 23 23 23 23 23 23 22 22 21 20 19 19 18 17 17 16 16 15 15 15 14 14 14 14 14 13 13 13 13 13
23 22 23 23 24 24 25 25 25 25 24 23 23 23 24 23 23 23 23 22 22 21 20 20 19 18 18 17 16 16 15 15 15 14 14 14 14 13 13 13 13 13 13 13
22 22 22 23 24 24 25 25 25 25 25 24 24 23 23 22 22 22 22 22 21 21 20 19 18 18 17 17 16 15 15 15 15 14 14 14 14 13 13 13 13 13 13 13
21 21 21 22 24 24 23 24 24 24 24 24 23 22 23 22 22 21 21 21 20 20 19 19 18 17 16 16 15 15 15 15 14 14 14 14 13 13 13 13 13 13 13 12
20 20 20 21 22 21 23 24 24 24 23 23 22 22 22 21 21 20 20 20 19 19 18 18 17 16 16 15 15 15 14 14 14 14 14 14 13 13 13 13 13 12 12 12
21 20 20 20 21 21 23 23 23 22 22 22 21 22 22 21 21 20 19 19 18 18 17 17 16 16 15 15 15 14 14 14 14 14 14 14 14 13 13 13 13 12 12 12
22 20 20 20 19 20 20 22 22 22 20 21 21 21 20 21 20 20 18 18 17 17 16 16 15 15 15 14 14 14 14 14 14 14 13 13 13 13 13 13 12 12 12 12
20 20 20 19 19 19 19 21 22 20 19 19 19 19 19 19 19 17 17 17 16 16 15 15 15 15 14 14 14 14 14 14 14 13 13 13 13 13 13 12 12 12 12 12
20 20 19 19 18 17 19 19 19 18 18 18 18 18 18 18 17 17 16 16 16 15 15 15 14 14 14 13 13 13 13 13 13 13 13 13 13 13 12 12 12 12 12 12
19 18 18 17 17 17 17 17 17 17 17 17 17 17 17 17 16 16 16 15 15 15 14 14 14 14 13 13 13 13 13 13 13 13 13 13 13 13 13 12 12 12 12 12
19 18 18 17 17 17 17 16 16 16 16 17 16 16 16 16 16 15 15 15 14 14 14 14 13 13 13 13 13 13 13 13 12 12 12 12 12 12 12 12 12 12 12 12
17 17 17 17 16 17 16 16 16 16 16 16 16 16 16 15 15 15 15 14 14 14 14 13 13 13 13 13 13 12 12 12 12 12 12 12 12 12 12 12 12 12 12 12
17 16 16 16 16 16 16 15 16 16 15 16 16 15 15 15 14 14 14 14 13 13 13 13 13 13 13 12 12 12 12 12 12 12 12 12 12 12 12 12 12 12 12 12
Wind_Speed
12 12 15 16 17 17 16 14 13 11 10 12 12 10 11 12 12 10 9 9 8 8 8 8 9 10 9 8 8 6 5 5 4 3 2 2 2 2 3 3 3 3 2 2
12 16 17 16 16 16 16 16 14 10 9 10 10 10 10 11 11 10 9 9 9 9 10 9 10 10 9 9 8 7 6 5 4 3 2 2 3 2 2 3 3 4 3 2
15 13 12 13 13 13 15 15 15 11 10 11 11 12 12 12 10 10 9 9 10 9 11 11 10 10 10 9 8 7 6 5 4 4 3 2 2 2 2 3 3 3 4 3
14 14 11 12 12 13 14 15 15 13 11 10 12 10 9 10 11 11 11 10 10 10 10 11 11 10 9 9 9 8 6 5 4 4 3 3 3 3 2 2 2 2 3 3
14 12 12 13 13 13 14 14 14 13 12 13 13 11 9 10 11 11 11 11 10 10 11 11 11 10 9 8 8 7 7 6 4 3 3 2 2 2 2 2 2 2 2 2
17 13 13 13 12 13 13 12 12 12 12 14 14 11 7 8 10 10 11 11 10 10 11 11 11 10 9 8 8 7 6 5 4 4 3 2 2 2 2 1 2 2 2 1
15 15 13 11 11 12 12 10 8 10 10 12 11 9 5 4 8 11 11 11 11 11 11 12 11 10 9 9 8 8 7 6 5 4 3 2 2 3 3 2 2 1 2 1
13 12 11 10 12 11 13 12 10 10 9 9 8 6 4 6 5 7 10 10 10 11 11 11 11 9 9 9 8 8 7 6 5 4 3 2 2 2 1 1 0 1 1 1
9 10 9 10 11 12 12 13 13 13 15 12 8 5 5 5 7 9 10 11 10 10 10 11 10 8 7 7 8 8 7 6 5 5 4 3 2 1 1 0 0 0 1 1
10 10 10 10 10 12 11 10 9 11 10 9 8 7 4 6 7 7 8 10 10 10 9 9 10 9 7 6 6 7 7 6 5 5 3 4 3 2 1 0 0 1 1 1
10 10 11 10 10 11 10 11 10 10 9 7 8 5 2 5 7 8 8 8 8 9 9 8 8 8 8 7 6 6 7 6 6 5 4 4 3 2 2 1 1 1 1 1
7 7 10 12 12 11 12 12 11 7 8 8 7 5 0 3 6 7 8 8 7 8 9 9 9 8 7 7 7 6 6 6 6 5 5 4 3 2 2 1 1 1 1 0
5 4 7 9 9 9 10 10 9 8 7 7 8 5 3 4 3 4 6 7 7 8 9 9 9 8 7 7 6 6 6 5 5 6 5 4 3 3 1 1 1 0 0 0
5 6 8 10 9 9 11 11 9 7 7 8 10 8 5 4 4 5 5 7 7 7 8 8 8 8 7 6 6 6 5 5 5 5 5 4 3 2 1 1 1 0 0 0
4 9 12 13 14 14 14 14 12 11 11 10 10 8 5 4 3 4 5 6 7 7 6 7 7 7 7 7 6 5 5 4 5 5 5 5 4 3 2 2 1 1 0 0
4 7 11 13 15 14 15 15 14 12 10 9 7 7 2 2 2 2 3 5 5 6 7 6 6 7 7 7 6 5 5 4 4 4 5 5 4 3 3 2 1 1 1 1
6 7 9 12 12 13 14 10 10 8 6 5 5 5 2 2 2 1 1 3 4 4 5 6 6 6 6 6 6 5 5 4 4 4 4 5 5 4 3 3 2 2 2 2
8 9 7 10 11 13 7 4 5 6 4 1 1 1 2 3 3 2 3 3 3 4 4 4 6 5 5 5 5 5 5 5 5 4 4 4 4 4 3 3 2 2 1 1
9 8 7 7 10 10 7 4 4 4 3 4 2 1 3 3 4 4 5 4 3 4 4 4 5 5 5 5 5 5 5 4 4 4 3 4 4 4 3 3 2 2 1 1
8 8 8 8 9 9 5 9 7 4 3 4 5 4 3 2 2 1 4 3 4 5 4 3 5 6 5 5 5 5 5 4 4 4 3 3 4 3 3 3 2 2 1 1
7 7 10 11 10 4 6 9 7 3 1 5 5 4 2 1 2 2 3 4 5 5 4 4 5 5 5 5 5 4 4 4 3 3 3 3 4 4 3 3 2 2 1 1
6 6 6 7 7 4 6 5 3 2 4 5 6 5 4 4 6 5 4 5 5 4 4 5 4 4 5 5 5 4 4 3 3 3 3 3 3 3 3 3 2 2 2 2
2 3 3 2 2 3 6 6 5 4 4 4 3 3 3 4 5 4 4 4 4 3 3 4 4 5 5 5 4 5 4 4 4 3 3 3 3 2 3 3 3 3 2 2
3 3 2 2 2 4 5 5 5 5 4 3 3 2 3 4 3 3 4 3 3 3 3 4 5 5 5 5 5 3 4 5 5 4 4 3 3 3 3 2 2 2 2 1
8 5 4 3 3 3 5 6 6 6 5 5 3 3 3 3 3 3 4 3 3 3 2 3 4 4 5 5 4 4 4 5 5 4 4 4 4 4 3 2 0 1 1 1
5 4 4 4 4 3 4 6 7 6 6 5 4 4 4 4 3 2 2 3 3 3 3 3 3 4 4 4 4 4 4 5 5 5 5 5 4 4 4 3 2 3 2 4
Wind_Direction
220 223 231 233 233 245 259 259 252 249 237 232 228 218 208 206 205 201 192 174 172 162 154 141 141 140 137 137 138 140 136 130 135 140 162 155 162 163 152 147 149 156 163 165
228 232 239 243 241 242 252 257 259 250 236 242 237 230 218 212 209 202 191 176 171 165 154 146 141 143 144 145 147 149 145 141 142 142 159 170 166 169 157 155 158 166 169 174
234 240 240 245 246 245 252 256 259 256 247 247 247 240 225 208 202 199 193 178 176 173 160 152 150 150 148 148 153 154 147 147 152 154 166 165 153 170 164 162 167 180 175 186
245 247 247 247 248 249 252 255 262 260 259 257 250 245 228 197 200 196 186 177 178 172 163 157 153 153 154 155 152 147 149 146 155 158 171 175 169 175 171 163 157 164 168 179
249 245 247 249 249 251 256 258 261 263 263 263 253 249 235 194 206 198 185 179 175 177 168 161 155 157 155 152 150 147 149 150 153 161 161 165 154 154 140 129 135 156 178 180
256 252 247 250 249 249 258 260 266 261 256 252 249 245 240 202 204 192 182 177 174 175 165 159 155 156 154 149 146 143 143 147 153 155 149 151 140 142 139 152 162 179 172 183
250 247 243 245 254 249 252 252 254 250 239 249 239 226 226 207 183 180 179 175 170 164 160 154 157 161 155 152 150 148 146 147 152 151 146 149 141 159 161 192 180 192 186 195
250 245 233 233 239 251 245 245 244 258 254 256 250 230 204 191 159 171 169 165 164 163 158 158 158 157 156 153 150 150 150 153 155 154 148 153 154 169 156 184 199 196 202 189
261 255 243 237 236 239 244 247 254 263 270 265 246 223 201 188 168 166 159 158 165 160 156 156 153 150 147 152 153 152 151 152 155 157 148 144 130 107 78 105 75 286 175 157
267 272 262 252 246 241 244 257 267 260 265 264 263 238 202 175 164 160 156 165 163 155 154 149 149 147 148 145 140 142 147 154 153 150 156 146 134 125 119 92 67 61 60 85
257 262 264 253 244 247 239 240 250 266 271 266 266 261 228 170 167 165 164 168 165 160 158 146 139 145 149 148 149 140 148 150 148 146 136 124 136 131 124 104 64 51 64 91
261 264 263 255 252 252 247 246 245 249 266 272 271 274 276 131 160 165 162 158 163 159 157 150 149 153 151 149 145 142 143 148 147 140 134 127 127 125 118 105 72 61 57 4
271 265 270 259 243 249 250 255 263 267 260 263 261 254 168 131 128 154 159 160 165 155 152 152 152 149 149 147 143 142 143 142 145 142 137 130 132 125 123 110 99 92 97 23
251 250 255 260 264 273 264 262 270 272 269 264 261 258 215 172 161 163 158 149 142 142 150 150 146 147 147 140 136 136 143 144 142 139 138 135 136 130 125 108 111 131 112 17
273 252 253 262 270 268 267 265 260 255 254 256 258 261 240 199 189 154 146 139 136 140 149 148 150 146 142 140 136 138 138 141 138 140 147 145 144 141 128 116 104 111 106 4
292 276 268 262 261 265 265 266 263 262 264 252 256 268 265 173 117 140 161 149 148 150 143 134 139 143 145 145 147 142 141 141 138 147 153 146 147 151 151 147 133 110 71 45
288 283 274 269 267 267 259 260 257 261 269 270 277 269 213 127 120 163 160 141 134 130 134 135 131 133 143 145 142 145 146 145 151 156 153 154 155 150 148 151 124 101 87 73
258 275 271 269 273 264 263 264 270 264 272 333 281 184 127 112 127 114 97 93 115 118 115 122 128 125 134 137 140 146 155 158 156 155 150 147 143 140 137 119 110 103 85 89
225 250 263 264 262 267 269 293 300 288 312 21 37 56 92 119 126 113 75 73 86 91 101 119 131 132 133 143 147 153 155 153 150 149 142 144 142 135 132 124 119 113 122 116
207 226 246 258 264 267 290 316 311 276 253 22 25 20 20 87 163 96 59 80 94 91 93 109 127 134 140 145 151 154 152 146 147 145 137 134 132 131 130 123 113 118 138 115
222 229 241 257 262 272 309 314 309 260 317 16 27 20 351 5 69 81 70 93 105 107 116 113 119 135 147 150 151 159 153 154 150 141 135 132 134 140 142 137 131 142 150 142
265 258 252 258 260 261 339 340 355 19 13 19 22 21 25 62 93 106 97 102 108 113 125 130 129 134 139 146 149 156 155 150 142 140 137 134 141 161 148 143 160 172 179 181
278 319 298 298 301 9 25 25 29 38 29 24 24 24 68 80 87 88 90 100 108 110 134 139 137 138 140 144 153 161 159 150 151 148 145 141 151 159 153 175 185 188 197 204
329 355 320 317 4 14 25 32 23 19 15 13 23 42 72 77 88 103 106 99 107 122 132 139 144 144 142 147 150 152 156 152 153 157 160 160 161 169 170 188 190 192 190 207
325 327 315 289 318 335 21 14 7 17 15 15 17 51 74 79 73 84 98 106 108 117 121 136 146 145 141 142 148 155 159 160 162 167 171 176 179 178 167 169 89 176 123 144
315 321 304 308 339 339 348 358 359 8 7 8 17 37 45 61 50 57 93 109 121 125 123 140 150 150 147 151 155 156 156 165 168 174 183 185 186 180 178 173 141 55 109 123
Height
1464 1466 1465 1460 1457 1456 1454 1453 1454 1450 1444 1447 1451 1454 1455 1457 1459 1462 1465 1469 1473 1477 1481 1483 1486 1488 1490 1492 1494 1495 1497 1498 1500 1502 1503 1505 1506 1507 1508 1509 1509 1510 1510 1511
1461 1461 1454 1450 1450 1451 1453 1455 1452 1446 1442 1445 1449 1451 1450 1453 1455 1458 1462 1466 1471 1475 1479 1482 1484 1487 1489 1490 1492 1494 1496 1497 1499 1500 1502 1504 1505 1506 1507 1508 1508 1509 1509 1510
1456 1450 1446 1447 1449 1453 1453 1453 1450 1448 1444 1443 1448 1455 1450 1449 1452 1457 1460 1464 1468 1473 1476 1480 1483 1486 1488 1490 1491 1493 1495 1496 1498 1500 1501 1503 1504 1505 1506 1506 1507 1508 1508 1509
1449 1444 1444 1447 1449 1449 1454 1446 1445 1445 1451 1454 1450 1462 1451 1447 1450 1453 1457 1461 1466 1470 1474 1478 1481 1484 1487 1489 1490 1492 1493 1495 1497 1498 1499 1501 1502 1503 1504 1505 1506 1507 1507 1507
1446 1442 1443 1447 1446 1445 1446 1442 1443 1445 1450 1455 1449 1457 1454 1445 1451 1451 1454 1459 1463 1467 1471 1475 1479 1483 1486 1488 1489 1490 1492 1493 1495 1496 1498 1499 1501 1501 1502 1503 1504 1505 1506 1506
1440 1437 1439 1440 1440 1440 1440 1443 1445 1445 1450 1463 1451 1455 1457 1445 1446 1447 1452 1456 1460 1464 1469 1473 1477 1481 1484 1486 1488 1489 1491 1492 1493 1495 1496 1497 1498 1499 1500 1501 1502 1503 1503 1504
1443 1437 1435 1437 1441 1441 1442 1452 1465 1467 1467 1461 1443 1450 1452 1440 1438 1443 1448 1454 1458 1462 1467 1471 1475 1479 1482 1485 1487 1488 1489 1490 1492 1493 1495 1496 1497 1497 1498 1499 1500 1501 1502 1502
1448 1446 1435 1435 1440 1445 1443 1449 1467 1475 1468 1458 1446 1451 1445 1436 1438 1442 1447 1452 1456 1461 1465 1470 1473 1477 1480 1483 1485 1487 1488 1489 1490 1492 1493 1494 1495 1496 1497 1498 1499 1499 1500 1501
1447 1444 1431 1431 1433 1437 1443 1445 1444 1453 1452 1455 1450 1447 1443 1436 1438 1442 1446 1451 1456 1460 1464 1468 1472 1476 1479 1482 1483 1485 1486 1488 1489 1491 1492 1493 1494 1496 1496 1497 1498 1498 1499 1500
1441 1446 1434 1429 1431 1432 1436 1440 1447 1452 1461 1463 1456 1450 1450 1444 1442 1443 1447 1451 1455 1459 1463 1467 1471 1474 1478 1480 1482 1484 1485 1487 1488 1490 1491 1493 1494 1494 1495 1496 1496 1497 1497 1498
1439 1448 1442 1435 1436 1437 1438 1442 1447 1448 1446 1461 1468 1459 1440 1440 1441 1444 1448 1452 1453 1457 1462 1466 1469 1473 1477 1479 1481 1483 1485 1486 1487 1489 1490 1491 1492 1493 1494 1495 1495 1496 1496 1496
1440 1445 1448 1439 1430 1428 1432 1436 1441 1454 1456 1452 1459 1461 1436 1439 1441 1444 1447 1451 1453 1457 1461 1465 1469 1473 1476 1478 1481 1482 1483 1485 1486 1487 1489 1490 1491 1492 1493 1494 1494 1495 1495 1495
1444 1450 1456 1448 1441 1433 1433 1432 1434 1439 1446 1454 1461 1459 1439 1440 1442 1444 1447 1451 1454 1457 1460 1464 1467 1471 1475 1477 1479 1481 1483 1484 1486 1487 1488 1489 1490 1491 1492 1492 1493 1493 1493 1494
1444 1449 1456 1459 1451 1442 1439 1435 1434 1441 1449 1455 1453 1449 1442 1441 1443 1445 1448 1450 1453 1457 1460 1464 1467 1470 1473 1476 1478 1480 1482 1484 1485 1486 1487 1488 1489 1490 1491 1491 1492 1492 1492 1492
1444 1447 1445 1443 1439 1437 1435 1434 1434 1437 1440 1448 1447 1444 1439 1441 1443 1445 1447 1450 1453 1457 1460 1463 1466 1469 1472 1474 1477 1479 1481 1483 1484 1485 1486 1487 1488 1489 1490 1490 1491 1491 1491 1491
1445 1447 1444 1442 1436 1434 1433 1430 1429 1431 1432 1436 1439 1442 1438 1440 1443 1447 1447 1449 1452 1455 1458 1462 1465 1467 1470 1473 1476 1478 1479 1481 1483 1484 1485 1486 1487 1488 1489 1489 1490 1490 1490 1490
1447 1449 1449 1445 1434 1434 1437 1431 1430 1432 1432 1434 1440 1441 1438 1440 1443 1447 1448 1449 1451 1455 1457 1461 1464 1466 1469 1472 1474 1476 1478 1480 1482 1483 1484 1486 1487 1488 1488 1489 1489 1489 1489 1489
1450 1451 1449 1445 1444 1452 1436 1426 1427 1430 1432 1434 1437 1437 1437 1440 1444 1447 1448 1450 1452 1455 1457 1460 1463 1466 1468 1471 1473 1475 1477 1479 1481 1482 1484 1485 1486 1487 1488 1488 1488 1488 1488 1488
1443 1448 1450 1450 1450 1445 1432 1428 1430 1432 1436 1436 1437 1437 1438 1440 1443 1447 1449 1451 1454 1455 1458 1460 1463 1465 1467 1469 1471 1474 1476 1478 1480 1482 1483 1484 1485 1486 1487 1488 1488 1488 1488 1488
1439 1443 1449 1448 1453 1453 1443 1433 1432 1433 1441 1440 1439 1440 1441 1441 1444 1448 1450 1452 1454 1455 1458 1460 1462 1464 1466 1468 1470 1473 1475 1477 1479 1480 1482 1483 1484 1485 1486 1487 1487 1488 1488 1488
1441 1444 1447 1447 1451 1449 1442 1436 1433 1443 1448 1443 1442 1443 1444 1444 1447 1450 1450 1452 1454 1455 1457 1459 1461 1463 1465 1467 1469 1471 1474 1476 1478 1480 1481 1482 1484 1485 1486 1486 1487 1487 1488 1488
1442 1443 1445 1447 1452 1455 1444 1440 1444 1448 1446 1445 1445 1446 1446 1446 1447 1449 1451 1452 1454 1455 1457 1459 1460 1462 1465 1467 1469 1470 1473 1475 1477 1479 1480 1481 1483 1485 1486 1486 1487 1487 1488 1488
1443 1447 1447 1450 1453 1450 1447 1448 1448 1447 1447 1447 1447 1447 1447 1447 1449 1450 1451 1453 1454 1455 1457 1459 1460 1462 1464 1466 1468 1470 1472 1474 1476 1478 1479 1481 1482 1484 1485 1486 1487 1487 1488 1488
1444 1445 1447 1449 1450 1450 1449 1449 1449 1449 1448 1448 1448 1448 1448 1448 1450 1451 1452 1453 1454 1456 1457 1459 1460 1462 1464 1466 1468 1469 1471 1473 1475 1477 1478 1480 1482 1483 1484 1485 1486 1487 1487 1488
1449 1448 1447 1449 1451 1450 1450 1450 1450 1449 1449 1448 1449 1449 1449 1450 1451 1452 1452 1453 1454 1455 1457 1459 1460 1462 1464 1465 1467 1469 1470 1472 1474 1475 1477 1479 1481 1482 1483 1484 1485 1486 1487 1487
1453 1452 1453 1453 1453 1453 1453 1452 1451 1450 1450 1450 1450 1450 1450 1451 1451 1452 1452 1453 1454 1454 1456 1458 1460 1462 1463 1464 1466 1468 1469 1471 1472 1474 1476 1478 1480 1481 1482 1483 1484 1485 1486 1486